[Date Prev][Date Next][Thread Prev][Thread Next] - [Date Index][Thread Index][Author Index]

2 Line ISS Keps 6-22



ISS
1 25544U 98067A   05172.93001157  .00015453  00000-0  11480-3 0  7400
2 25544 051.6458 236.5911 0004123 288.9085 068.5462 15.73059756376429
----
Via the sarex mailing list at AMSAT.ORG courtesy of AMSAT-NA.
To unsubscribe, send "unsubscribe sarex" to Majordomo@amsat.org



AMSAT Top AMSAT Home